SCP
-0 -0 -0 -0 -0 0 0 0 0 0 0 0 0 0 0 0 -0 -0 -0 -0 0 0 0 0 0 1 0 1 1 1 1 0 0 0 0 0 0 0 0 0 0 0 0 0
-0 0 0 0 0 0 0 0 0 0 0 0 0 0 0 0 0 0 -0 -0 -0 0 0 0 0 0 1 0 0 0 0 0 0 0 0 0 0 0 0 0 0 0 0 0
0 0 0 -0 0 0 0 0 0 0 0 0 0 0 0 0 0 0 0 0 -0 -0 0 0 0 0 0 0 0 0 0 0 0 0 0 0 0 0 0 0 0 0 0 0
0 -0 0 -0 -0 0 -0 0 0 0 0 0 0 0 0 0 0 0 0 0 0 -0 0 0 0 0 0 0 0 0 0 0 0 0 0 0 0 0 0 0 0 0 0 0
-0 -0 0 -0 0 0 -0 -0 0 0 -0 -0 0 0 0 0 0 0 0 0 0 -0 0 0 0 0 0 0 0 0 0 0 0 0 0 0 0 0 0 0 0 0 0 0
-0 -0 -0 0 -0 -0 -0 0 0 -0 -0 -0 0 0 0 0 0 0 0 0 0 0 0 0 0 0 0 0 0 0 0 0 0 0 0 0 0 0 0 0 0 0 0 0
-0 -0 0 0 0 -0 -0 -0 -0 0 0 0 -0 0 0 0 0 0 0 0 0 0 0 0 0 0 0 0 0 0 0 0 0 0 0 0 0 0 0 0 0 0 0 0
-0 -0 -0 -0 -0 -0 0 0 0 0 0 0 0 0 0 -0 -0 -0 -0 -0 -0 0 0 0 0 0 0 0 0 0 0 0 0 0 0 0 0 0 0 0 0 0 0 0
-0 -0 0 0 0 0 0 0 0 -0 -0 0 0 0 0 0 -0 -0 -0 0 -0 0 0 0 0 0 0 0 0 0 0 0 0 0 0 0 0 0 0 0 0 0 0 0
0 -0 0 0 0 0 0 0 0 0 0 0 0 0 0 0 0 -0 -0 -0 -0 -0 0 0 0 0 0 0 0 0 0 0 0 0 0 0 0 0 0 0 0 0 0 0
0 0 0 0 0 0 0 0 0 0 0 0 0 0 0 -0 -0 -0 -0 -0 0 -0 -0 -0 0 0 0 0 0 0 0 0 0 0 0 0 0 0 0 0 0 0 0 0
0 0 0 0 0 0 0 0 0 0 0 0 0 0 -0 0 0 0 0 0 0 0 0 0 0 0 0 0 0 0 0 0 0 0 0 0 0 0 0 0 0 0 0 0
-0 -0 0 0 0 0 0 0 0 0 0 0 -0 -0 -0 -0 -0 -0 -0 -0 -0 -0 -0 -0 -0 -0 -0 -0 -0 0 0 0 0 0 0 0 0 0 0 0 0 0 -0 -0
0 0 -0 0 0 0 0 0 0 0 0 0 0 -0 -0 -0 -0 -0 -0 -0 -0 -0 -0 -0 0 -0 -0 -0 -0 -0 0 0 0 0 0 0 0 0 0 0 0 0 0 0
0 0 0 0 0 0 0 0 0 -0 -0 -0 0 -0 -0 -0 -0 -0 -0 -0 -0 -0 -0 -0 0 -0 0 0 -0 -0 0 0 0 0 0 0 0 0 0 0 0 0 0 0
0 0 0 0 0 -0 -0 -0 -0 -0 -0 -0 -0 -0 -0 -0 -0 -0 -0 -0 -0 -0 -0 -0 -0 0 0 0 0 -0 0 0 0 0 0 0 0 0 0 0 0 0 0 0
0 0 0 0 0 0 0 0 -0 -0 -0 -0 -0 -0 -0 -0 -0 -0 -0 -0 -0 -0 -0 -0 -0 -0 0 0 -0 -0 -0 -0 -0 0 0 0 0 0 0 0 0 0 0 0
0 0 0 0 0 0 0 0 0 0 -0 0 0 -0 -0 -0 -0 -0 -0 -0 -0 -0 -0 -0 -0 -0 -0 -0 -0 -0 -0 0 0 0 0 0 0 0 0 0 0 0 0 0
0 0 0 0 0 0 0 0 0 0 0 0 -0 -0 -0 -0 0 0 0 -0 -0 -0 -0 -0 0 0 0 0 0 0 0 0 0 0 0 0 0 0 0 0 0 0 0 0
0 0 0 0 0 0 0 0 0 0 0 0 0 -0 0 0 0 0 0 0 -0 -0 -0 -0 -0 0 0 -0 -0 0 0 0 0 0 0 0 0 0 0 0 0 0 -0 -0
0 0 0 0 0 0 0 0 0 0 0 0 0 -0 -0 -0 0 0 -0 -0 -0 0 0 0 0 0 0 0 0 0 0 0 0 0 0 0 0 0 0 0 -0 -0 -0 -0
0 0 0 0 0 0 0 0 0 0 0 0 0 0 -0 -0 -0 0 0 -0 0 0 0 0 0 0 0 0 0 0 0 0 0 0 0 0 0 0 0 -0 -0 -0 -0 -0
0 0 0 0 0 0 0 0 0 0 0 0 0 0 -0 -0 -0 -0 0 0 0 0 0 0 0 0 0 0 0 0 0 0 0 0 0 0 0 0 0 -0 -0 -0 -0 -0
-0 -0 -0 -0 0 0 0 0 0 0 0 0 0 0 0 -0 -0 0 0 0 0 0 0 0 0 0 0 0 0 0 0 0 0 0 0 0 0 0 0 -0 -0 -0 -0 0
0 0 0 0 0 0 0 0 0 0 0 0 0 0 0 0 0 0 0 0 0 0 0 0 0 0 0 0 0 0 0 0 0 0 0 0 0 0 0 -0 -0 -0 0 0
0 0 0 0 0 0 0 -0 0 0 0 0 0 0 0 0 0 0 0 0 0 0 0 0 0 0 0 0 0 0 0 0 0 0 0 0 0 0 0 -0 -0 0 0 0
0 0 0 0 0 0 0 0 0 0 0 0 0 0 0 0 0 0 0 0 0 0 0 0 0 0 0 0 0 0 0 0 0 0 0 0 0 0 0 0 0 0 0 0
Wind_Speed_500mb
14 17 19 21 27 30 33 32 34 48 53 53 52 54 59 91 82 83 80 75 69 66 71 54 46 39 40 38 38 38 39 41 44 47 47 48 51 54 53 47 40 30 30 26
23 7 24 22 9 13 19 24 34 48 59 48 73 76 63 67 74 86 84 82 73 70 67 63 48 40 33 37 35 36 40 41 39 43 44 46 50 57 53 48 42 36 31 25
10 27 23 10 24 28 33 35 45 52 65 80 69 61 55 65 71 86 89 80 69 68 68 71 51 47 42 37 37 37 42 43 48 46 43 45 50 45 47 47 42 33 26 22
13 21 8 19 30 29 45 48 49 47 45 65 69 64 64 77 75 66 64 71 68 62 65 58 53 54 49 42 38 38 39 40 38 42 39 38 40 43 45 43 45 42 36 35
8 17 20 21 29 46 53 58 36 52 72 85 70 71 64 54 48 44 49 54 50 59 61 61 49 57 57 53 54 55 56 50 48 54 64 65 65 53 42 35 33 34 31 29
11 6 9 18 48 67 48 17 89 81 77 52 49 15 14 50 45 44 33 35 30 20 14 27 35 60 71 64 60 49 42 43 49 52 50 51 50 45 42 37 26 23 19 20
10 6 12 27 52 51 28 23 73 66 61 55 24 23 37 52 55 48 47 48 46 49 50 49 57 58 68 63 61 55 47 44 43 45 48 39 32 29 20 17 14 12 19 26
8 6 8 47 20 14 21 44 48 56 54 51 50 56 61 64 68 63 63 64 69 72 68 68 66 73 75 79 63 64 60 58 47 38 32 24 15 7 6 8 14 20 25 28
9 6 15 31 27 23 20 33 36 40 53 56 60 59 64 65 67 70 74 77 76 80 77 76 84 81 72 63 51 54 49 44 38 27 24 11 10 7 13 12 12 10 10 11
7 13 23 24 31 27 25 30 37 40 44 45 45 51 46 52 57 60 63 68 66 70 75 67 86 80 65 55 48 49 45 37 33 25 17 14 13 9 7 7 8 9 14 17
3 12 19 25 31 29 26 28 32 33 35 35 36 40 41 40 41 53 56 57 58 60 62 69 67 61 50 54 50 46 44 39 37 29 27 19 15 15 14 11 14 11 13 21
7 13 6 18 26 28 29 30 31 32 31 30 34 35 37 35 37 39 46 45 50 66 67 62 55 58 45 40 42 42 35 33 31 28 21 16 17 19 29 28 27 23 23 25
4 12 11 16 18 19 22 24 29 30 29 30 36 39 38 37 39 39 43 46 48 46 42 45 47 48 46 43 43 39 37 31 27 28 26 24 24 20 21 25 35 36 33 30
11 11 16 21 21 22 20 19 26 26 26 27 31 36 41 44 43 45 45 44 43 42 43 46 46 45 44 45 43 41 37 37 28 28 27 24 23 21 20 22 23 21 26 35
8 11 14 18 20 23 20 18 23 27 27 26 28 33 37 41 43 44 42 41 40 40 41 42 44 46 45 41 39 38 33 36 29 27 25 24 22 21 22 22 24 26 27 26
4 8 15 16 18 22 21 21 22 24 24 21 25 29 32 35 36 36 34 35 38 39 40 42 44 43 42 40 37 34 30 37 32 26 26 24 24 25 26 26 28 31 31 33
5 13 14 18 19 19 18 17 19 20 21 20 23 25 28 33 37 38 38 36 36 39 39 42 41 41 43 44 34 33 32 32 38 32 30 30 30 27 28 30 31 34 35 36
4 8 12 11 10 13 12 12 15 16 17 17 18 22 27 31 34 35 36 35 36 42 45 46 49 46 47 59 43 40 39 36 33 31 29 30 30 29 30 33 36 39 44 45
3 8 10 7 2 5 5 7 10 12 12 13 16 21 24 27 30 32 36 37 39 42 44 45 53 52 54 60 57 48 45 43 40 37 34 37 35 36 37 38 40 42 45 52
8 7 11 9 8 7 6 6 7 8 8 10 12 16 20 25 28 29 31 36 32 31 35 48 48 53 60 59 57 48 45 43 40 37 36 36 36 38 38 40 41 41 43 49
5 9 7 7 5 5 4 2 2 2 2 3 6 10 14 17 20 23 26 28 26 31 37 39 46 53 49 56 47 43 42 41 38 37 36 36 37 36 37 37 38 41 47 55
10 7 1 4 4 3 4 6 9 10 8 7 5 8 11 13 16 12 16 20 19 28 25 29 37 48 49 44 43 44 41 40 37 34 33 34 35 37 38 40 42 44 49 57
14 15 10 14 14 9 16 20 22 22 22 15 12 14 11 10 11 13 14 15 15 21 18 24 40 45 47 35 42 45 44 42 40 37 34 35 34 36 38 40 44 45 50 60
16 18 16 20 21 21 28 26 19 21 29 26 23 17 18 13 16 11 15 16 19 25 19 27 38 42 43 34 37 42 45 42 43 40 38 37 35 37 39 42 45 48 56 62
19 19 18 20 22 22 27 26 19 14 7 10 10 15 14 16 14 14 15 19 25 26 20 30 39 38 29 31 34 37 41 40 44 42 38 38 38 40 42 44 48 57 61 66
21 19 18 16 17 21 24 27 18 13 11 12 15 9 10 5 8 16 17 22 23 27 22 24 24 26 25 36 32 34 39 39 40 41 41 41 41 41 44 51 54 61 65 69
22 22 16 14 15 20 22 23 22 21 11 13 11 9 10 11 15 13 19 20 22 21 21 24 24 28 30 31 28 33 38 38 40 42 40 43 46 49 53 57 61 64 68 71
Wind_Direction_500mb
320 293 295 295 293 298 290 291 283 301 298 303 311 308 315 311 316 315 311 315 314 315 318 318 293 259 221 202 189 185 183 179 178 181 184 187 190 189 186 190 191 190 196 204
296 355 310 296 305 313 305 309 312 306 298 301 314 310 305 300 301 307 307 308 308 308 307 304 283 242 209 196 191 188 183 183 176 178 185 185 191 194 192 189 192 200 203 207
330 333 304 145 17 358 337 329 319 302 306 310 301 308 314 304 304 300 297 304 304 305 300 303 290 236 201 200 188 186 183 182 185 184 183 188 190 184 190 193 195 189 185 203
315 330 349 64 51 0 326 306 308 327 326 321 323 319 312 311 302 304 297 301 301 302 298 294 282 228 198 189 186 186 185 182 181 180 177 176 172 172 179 186 192 204 216 228
316 326 292 62 3 335 326 313 11 340 330 315 305 311 305 341 331 329 318 320 309 305 299 288 261 225 191 186 183 180 186 191 191 187 185 188 191 196 194 199 203 215 231 256
346 316 352 8 341 333 317 284 0 340 326 329 316 301 6 353 1 4 353 359 360 347 6 228 182 179 181 172 177 186 190 193 197 192 193 194 192 188 197 199 210 225 243 285
343 328 85 352 346 329 13 336 324 338 345 15 25 8 356 28 28 29 34 39 44 58 61 73 123 115 137 139 134 139 148 145 136 139 145 142 141 145 163 179 200 257 283 289
325 337 13 352 353 34 309 317 329 358 7 13 20 26 29 33 37 40 46 52 55 56 57 68 96 104 85 95 104 111 114 113 110 105 101 102 102 65 28 313 293 277 278 286
340 31 318 343 332 306 315 325 5 13 15 23 28 34 32 39 39 42 48 54 59 62 60 65 75 82 82 75 77 84 87 86 89 73 71 43 39 9 10 345 339 323 308 298
332 11 344 340 349 350 14 25 19 17 15 16 16 22 27 27 31 36 41 45 51 60 56 51 59 64 63 65 66 71 84 80 79 69 50 54 65 61 44 10 334 342 317 307
102 17 322 15 2 11 24 18 15 18 22 20 20 18 17 21 25 36 45 50 49 51 51 56 64 66 67 72 64 69 69 72 62 61 56 29 42 48 47 4 336 318 315 312
50 317 282 309 8 15 18 16 18 19 22 24 18 19 24 29 29 36 39 38 37 39 43 43 46 48 51 49 52 59 59 52 60 59 40 28 28 16 359 4 352 346 341 330
329 354 354 2 8 6 15 16 21 25 26 28 29 31 36 39 42 42 41 43 46 49 49 46 46 44 40 38 43 46 47 49 38 46 41 21 20 15 15 352 344 343 344 341
31 21 9 8 11 9 15 20 20 25 32 37 37 39 43 46 47 47 46 46 46 45 45 45 44 41 35 33 32 34 35 34 31 29 24 16 9 4 357 350 342 333 324 324
49 24 12 12 20 22 24 27 24 24 27 38 43 46 46 45 46 47 45 43 42 42 41 37 34 30 25 26 25 26 25 24 28 24 11 12 0 357 352 348 341 336 330 328
39 34 13 21 23 24 25 31 33 33 34 43 46 46 46 47 45 40 36 34 34 33 32 30 30 25 23 20 20 18 20 6 28 24 13 4 357 355 348 345 345 341 337 331
16 17 26 20 18 17 23 34 39 40 44 55 53 48 46 42 40 38 36 36 38 41 38 36 34 29 26 21 20 17 19 17 15 16 12 1 354 350 345 344 342 337 336 332
306 333 347 343 351 10 27 45 45 51 56 61 58 52 45 41 38 37 35 39 42 41 37 32 33 29 24 20 25 21 19 17 11 8 5 355 354 350 346 345 343 341 337 336
329 347 3 3 44 42 56 79 72 71 72 71 58 46 41 38 36 37 33 38 38 36 29 28 27 24 19 19 24 17 14 10 7 3 358 355 355 352 351 344 342 340 333 333
44 36 44 65 95 98 116 128 112 93 86 66 54 48 42 40 38 37 34 36 38 37 32 33 27 23 20 21 23 13 10 5 1 356 350 355 349 349 344 342 338 333 327 328
325 2 20 60 83 79 87 139 177 171 143 76 45 32 24 26 31 36 36 35 29 31 26 22 24 23 17 22 14 8 6 3 359 354 351 348 346 343 340 337 334 331 330 336
31 24 168 307 298 307 328 270 256 250 259 278 306 340 355 2 7 9 27 31 16 28 25 15 14 16 12 20 10 8 5 2 357 353 350 346 343 341 338 337 334 333 333 340
22 17 358 351 350 334 320 298 269 240 258 250 273 275 293 329 330 352 352 345 0 349 6 355 5 8 9 6 6 6 3 359 358 355 351 343 342 338 336 335 334 333 336 344
359 354 359 355 348 349 347 343 330 254 250 252 311 291 258 276 305 296 328 317 327 336 331 340 349 354 2 360 360 0 360 355 355 355 349 348 341 338 338 336 336 339 342 349
349 345 346 350 346 347 346 343 349 4 244 295 296 271 271 278 280 327 319 320 313 329 318 310 338 346 353 347 353 354 355 351 349 353 350 346 342 339 338 338 342 347 350 349
353 345 339 341 351 352 350 359 0 348 352 323 310 305 307 319 324 329 318 314 316 302 310 316 328 332 331 339 351 348 350 348 347 349 351 346 344 342 341 346 348 352 353 349
352 351 349 345 346 349 355 354 343 346 305 321 359 7 0 340 315 319 325 329 320 310 307 308 313 314 335 339 341 344 347 347 343 348 348 346 346 350 352 352 354 353 353 350
Wind_Speed_850mb
14 17 19 21 27 30 33 32 34 48 53 53 52 54 59 91 82 83 80 75 69 66 71 54 46 39 40 38 38 38 39 41 44 47 47 48 51 54 53 47 40 30 30 26
23 7 24 22 9 13 19 24 34 48 59 48 73 76 63 67 74 86 84 82 73 70 67 63 48 40 33 37 35 36 40 41 39 43 44 46 50 57 53 48 42 36 31 25
10 27 23 10 24 28 33 35 45 52 65 80 69 61 55 65 71 86 89 80 69 68 68 71 51 47 42 37 37 37 42 43 48 46 43 45 50 45 47 47 42 33 26 22
13 21 8 19 30 29 45 48 49 47 45 65 69 64 64 77 75 66 64 71 68 62 65 58 53 54 49 42 38 38 39 40 38 42 39 38 40 43 45 43 45 42 36 35
8 17 20 21 29 46 53 58 36 52 72 85 70 71 64 54 48 44 49 54 50 59 61 61 49 57 57 53 54 55 56 50 48 54 64 65 65 53 42 35 33 34 31 29
11 6 9 18 48 67 48 17 89 81 77 52 49 15 14 50 45 44 33 35 30 20 14 27 35 60 71 64 60 49 42 43 49 52 50 51 50 45 42 37 26 23 19 20
10 6 12 27 52 51 28 23 73 66 61 55 24 23 37 52 55 48 47 48 46 49 50 49 57 58 68 63 61 55 47 44 43 45 48 39 32 29 20 17 14 12 19 26
8 6 8 47 20 14 21 44 48 56 54 51 50 56 61 64 68 63 63 64 69 72 68 68 66 73 75 79 63 64 60 58 47 38 32 24 15 7 6 8 14 20 25 28
9 6 15 31 27 23 20 33 36 40 53 56 60 59 64 65 67 70 74 77 76 80 77 76 84 81 72 63 51 54 49 44 38 27 24 11 10 7 13 12 12 10 10 11
7 13 23 24 31 27 25 30 37 40 44 45 45 51 46 52 57 60 63 68 66 70 75 67 86 80 65 55 48 49 45 37 33 25 17 14 13 9 7 7 8 9 14 17
3 12 19 25 31 29 26 28 32 33 35 35 36 40 41 40 41 53 56 57 58 60 62 69 67 61 50 54 50 46 44 39 37 29 27 19 15 15 14 11 14 11 13 21
7 13 6 18 26 28 29 30 31 32 31 30 34 35 37 35 37 39 46 45 50 66 67 62 55 58 45 40 42 42 35 33 31 28 21 16 17 19 29 28 27 23 23 25
4 12 11 16 18 19 22 24 29 30 29 30 36 39 38 37 39 39 43 46 48 46 42 45 47 48 46 43 43 39 37 31 27 28 26 24 24 20 21 25 35 36 33 30
11 11 16 21 21 22 20 19 26 26 26 27 31 36 41 44 43 45 45 44 43 42 43 46 46 45 44 45 43 41 37 37 28 28 27 24 23 21 20 22 23 21 26 35
8 11 14 18 20 23 20 18 23 27 27 26 28 33 37 41 43 44 42 41 40 40 41 42 44 46 45 41 39 38 33 36 29 27 25 24 22 21 22 22 24 26 27 26
4 8 15 16 18 22 21 21 22 24 24 21 25 29 32 35 36 36 34 35 38 39 40 42 44 43 42 40 37 34 30 37 32 26 26 24 24 25 26 26 28 31 31 33
5 13 14 18 19 19 18 17 19 20 21 20 23 25 28 33 37 38 38 36 36 39 39 42 41 41 43 44 34 33 32 32 38 32 30 30 30 27 28 30 31 34 35 36
4 8 12 11 10 13 12 12 15 16 17 17 18 22 27 31 34 35 36 35 36 42 45 46 49 46 47 59 43 40 39 36 33 31 29 30 30 29 30 33 36 39 44 45
3 8 10 7 2 5 5 7 10 12 12 13 16 21 24 27 30 32 36 37 39 42 44 45 53 52 54 60 57 48 45 43 40 37 34 37 35 36 37 38 40 42 45 52
8 7 11 9 8 7 6 6 7 8 8 10 12 16 20 25 28 29 31 36 32 31 35 48 48 53 60 59 57 48 45 43 40 37 36 36 36 38 38 40 41 41 43 49
5 9 7 7 5 5 4 2 2 2 2 3 6 10 14 17 20 23 26 28 26 31 37 39 46 53 49 56 47 43 42 41 38 37 36 36 37 36 37 37 38 41 47 55
10 7 1 4 4 3 4 6 9 10 8 7 5 8 11 13 16 12 16 20 19 28 25 29 37 48 49 44 43 44 41 40 37 34 33 34 35 37 38 40 42 44 49 57
14 15 10 14 14 9 16 20 22 22 22 15 12 14 11 10 11 13 14 15 15 21 18 24 40 45 47 35 42 45 44 42 40 37 34 35 34 36 38 40 44 45 50 60
16 18 16 20 21 21 28 26 19 21 29 26 23 17 18 13 16 11 15 16 19 25 19 27 38 42 43 34 37 42 45 42 43 40 38 37 35 37 39 42 45 48 56 62
19 19 18 20 22 22 27 26 19 14 7 10 10 15 14 16 14 14 15 19 25 26 20 30 39 38 29 31 34 37 41 40 44 42 38 38 38 40 42 44 48 57 61 66
21 19 18 16 17 21 24 27 18 13 11 12 15 9 10 5 8 16 17 22 23 27 22 24 24 26 25 36 32 34 39 39 40 41 41 41 41 41 44 51 54 61 65 69
22 22 16 14 15 20 22 23 22 21 11 13 11 9 10 11 15 13 19 20 22 21 21 24 24 28 30 31 28 33 38 38 40 42 40 43 46 49 53 57 61 64 68 71
Wind_Direction_850mb
320 293 295 295 293 298 290 291 283 301 298 303 311 308 315 311 316 315 311 315 314 315 318 318 293 259 221 202 189 185 183 179 178 181 184 187 190 189 186 190 191 190 196 204
296 355 310 296 305 313 305 309 312 306 298 301 314 310 305 300 301 307 307 308 308 308 307 304 283 242 209 196 191 188 183 183 176 178 185 185 191 194 192 189 192 200 203 207
330 333 304 145 17 358 337 329 319 302 306 310 301 308 314 304 304 300 297 304 304 305 300 303 290 236 201 200 188 186 183 182 185 184 183 188 190 184 190 193 195 189 185 203
315 330 349 64 51 0 326 306 308 327 326 321 323 319 312 311 302 304 297 301 301 302 298 294 282 228 198 189 186 186 185 182 181 180 177 176 172 172 179 186 192 204 216 228
316 326 292 62 3 335 326 313 11 340 330 315 305 311 305 341 331 329 318 320 309 305 299 288 261 225 191 186 183 180 186 191 191 187 185 188 191 196 194 199 203 215 231 256
346 316 352 8 341 333 317 284 0 340 326 329 316 301 6 353 1 4 353 359 360 347 6 228 182 179 181 172 177 186 190 193 197 192 193 194 192 188 197 199 210 225 243 285
343 328 85 352 346 329 13 336 324 338 345 15 25 8 356 28 28 29 34 39 44 58 61 73 123 115 137 139 134 139 148 145 136 139 145 142 141 145 163 179 200 257 283 289
325 337 13 352 353 34 309 317 329 358 7 13 20 26 29 33 37 40 46 52 55 56 57 68 96 104 85 95 104 111 114 113 110 105 101 102 102 65 28 313 293 277 278 286
340 31 318 343 332 306 315 325 5 13 15 23 28 34 32 39 39 42 48 54 59 62 60 65 75 82 82 75 77 84 87 86 89 73 71 43 39 9 10 345 339 323 308 298
332 11 344 340 349 350 14 25 19 17 15 16 16 22 27 27 31 36 41 45 51 60 56 51 59 64 63 65 66 71 84 80 79 69 50 54 65 61 44 10 334 342 317 307
102 17 322 15 2 11 24 18 15 18 22 20 20 18 17 21 25 36 45 50 49 51 51 56 64 66 67 72 64 69 69 72 62 61 56 29 42 48 47 4 336 318 315 312
50 317 282 309 8 15 18 16 18 19 22 24 18 19 24 29 29 36 39 38 37 39 43 43 46 48 51 49 52 59 59 52 60 59 40 28 28 16 359 4 352 346 341 330
329 354 354 2 8 6 15 16 21 25 26 28 29 31 36 39 42 42 41 43 46 49 49 46 46 44 40 38 43 46 47 49 38 46 41 21 20 15 15 352 344 343 344 341
31 21 9 8 11 9 15 20 20 25 32 37 37 39 43 46 47 47 46 46 46 45 45 45 44 41 35 33 32 34 35 34 31 29 24 16 9 4 357 350 342 333 324 324
49 24 12 12 20 22 24 27 24 24 27 38 43 46 46 45 46 47 45 43 42 42 41 37 34 30 25 26 25 26 25 24 28 24 11 12 0 357 352 348 341 336 330 328
39 34 13 21 23 24 25 31 33 33 34 43 46 46 46 47 45 40 36 34 34 33 32 30 30 25 23 20 20 18 20 6 28 24 13 4 357 355 348 345 345 341 337 331
16 17 26 20 18 17 23 34 39 40 44 55 53 48 46 42 40 38 36 36 38 41 38 36 34 29 26 21 20 17 19 17 15 16 12 1 354 350 345 344 342 337 336 332
306 333 347 343 351 10 27 45 45 51 56 61 58 52 45 41 38 37 35 39 42 41 37 32 33 29 24 20 25 21 19 17 11 8 5 355 354 350 346 345 343 341 337 336
329 347 3 3 44 42 56 79 72 71 72 71 58 46 41 38 36 37 33 38 38 36 29 28 27 24 19 19 24 17 14 10 7 3 358 355 355 352 351 344 342 340 333 333
44 36 44 65 95 98 116 128 112 93 86 66 54 48 42 40 38 37 34 36 38 37 32 33 27 23 20 21 23 13 10 5 1 356 350 355 349 349 344 342 338 333 327 328
325 2 20 60 83 79 87 139 177 171 143 76 45 32 24 26 31 36 36 35 29 31 26 22 24 23 17 22 14 8 6 3 359 354 351 348 346 343 340 337 334 331 330 336
31 24 168 307 298 307 328 270 256 250 259 278 306 340 355 2 7 9 27 31 16 28 25 15 14 16 12 20 10 8 5 2 357 353 350 346 343 341 338 337 334 333 333 340
22 17 358 351 350 334 320 298 269 240 258 250 273 275 293 329 330 352 352 345 0 349 6 355 5 8 9 6 6 6 3 359 358 355 351 343 342 338 336 335 334 333 336 344
359 354 359 355 348 349 347 343 330 254 250 252 311 291 258 276 305 296 328 317 327 336 331 340 349 354 2 360 360 0 360 355 355 355 349 348 341 338 338 336 336 339 342 349
349 345 346 350 346 347 346 343 349 4 244 295 296 271 271 278 280 327 319 320 313 329 318 310 338 346 353 347 353 354 355 351 349 353 350 346 342 339 338 338 342 347 350 349
353 345 339 341 351 352 350 359 0 348 352 323 310 305 307 319 324 329 318 314 316 302 310 316 328 332 331 339 351 348 350 348 347 349 351 346 344 342 341 346 348 352 353 349
352 351 349 345 346 349 355 354 343 346 305 321 359 7 0 340 315 319 325 329 320 310 307 308 313 314 335 339 341 344 347 347 343 348 348 346 346 350 352 352 354 353 353 350